#datetime,building,power
2023-10-25T00:00:00,axn,33.01
2023-10-25T00:01:00,axn,32.79
2023-10-25T00:02:00,axn,32.90
2023-10-25T00:03:00,axn,34.03
2023-10-25T00:04:00,axn,33.78
2023-10-25T00:05:00,axn,33.91
2023-10-25T00:06:00,axn,33.58
2023-10-25T00:07:00,axn,32.45
2023-10-25T00:08:00,axn,32.55
2023-10-25T00:09:00,axn,32.46
2023-10-25T00:10:00,axn,32.55
2023-10-25T00:11:00,axn,32.66
2023-10-25T00:12:00,axn,32.55
2023-10-25T00:13:00,axn,32.63
2023-10-25T00:14:00,axn,32.58
2023-10-25T00:15:00,axn,35.62
2023-10-25T00:16:00,axn,35.48
2023-10-25T00:17:00,axn,35.48
2023-10-25T00:18:00,axn,32.81
2023-10-25T00:19:00,axn,32.60
2023-10-25T00:20:00,axn,32.41
2023-10-25T00:21:00,axn,32.53
2023-10-25T00:22:00,axn,32.44
2023-10-25T00:23:00,axn,32.51
2023-10-25T00:24:00,axn,32.47
2023-10-25T00:25:00,axn,32.51
2023-10-25T00:26:00,axn,32.60
2023-10-25T00:27:00,axn,33.17
2023-10-25T00:28:00,axn,32.95
2023-10-25T00:29:00,axn,38.59
2023-10-25T00:30:00,axn,38.85
2023-10-25T00:31:00,axn,38.42
2023-10-25T00:32:00,axn,32.25
2023-10-25T00:33:00,axn,32.29
2023-10-25T00:34:00,axn,32.15
2023-10-25T00:35:00,axn,32.19
2023-10-25T00:36:00,axn,32.20
2023-10-25T00:37:00,axn,32.25
2023-10-25T00:38:00,axn,31.04
2023-10-25T00:39:00,axn,29.22
2023-10-25T00:40:00,axn,27.98
2023-10-25T00:41:00,axn,27.90
2023-10-25T00:42:00,axn,28.87
2023-10-25T00:43:00,axn,28.28
2023-10-25T00:44:00,axn,28.19
2023-10-25T00:45:00,axn,28.63
2023-10-25T00:46:00,axn,28.20
2023-10-25T00:47:00,axn,28.08
2023-10-25T00:48:00,axn,27.94
2023-10-25T00:49:00,axn,28.14
2023-10-25T00:50:00,axn,28.01
2023-10-25T00:51:00,axn,28.03
2023-10-25T00:52:00,axn,28.44
2023-10-25T00:53:00,axn,28.26
2023-10-25T00:54:00,axn,28.14
2023-10-25T00:55:00,axn,28.64
2023-10-25T00:56:00,axn,28.22
2023-10-25T00:57:00,axn,28.51
2023-10-25T00:58:00,axn,28.12
2023-10-25T00:59:00,axn,27.98
2023-10-25T01:00:00,axn,28.00
2023-10-25T01:01:00,axn,28.13
2023-10-25T01:02:00,axn,28.34
2023-10-25T01:03:00,axn,28.41
2023-10-25T01:04:00,axn,28.37
2023-10-25T01:05:00,axn,28.04
2023-10-25T01:06:00,axn,28.06
2023-10-25T01:07:00,axn,28.17
2023-10-25T01:08:00,axn,28.00
2023-10-25T01:09:00,axn,28.36
2023-10-25T01:10:00,axn,28.23
2023-10-25T01:11:00,axn,27.85
2023-10-25T01:12:00,axn,28.00
2023-10-25T01:13:00,axn,27.97
2023-10-25T01:14:00,axn,28.15
2023-10-25T01:15:00,axn,28.21
2023-10-25T01:16:00,axn,28.01
2023-10-25T01:17:00,axn,28.16
2023-10-25T01:18:00,axn,27.97
2023-10-25T01:19:00,axn,28.18
2023-10-25T01:20:00,axn,28.55
2023-10-25T01:21:00,axn,28.45
2023-10-25T01:22:00,axn,28.35
2023-10-25T01:23:00,axn,28.35
2023-10-25T01:24:00,axn,31.24
2023-10-25T01:25:00,axn,31.06
2023-10-25T01:26:00,axn,28.32
2023-10-25T01:27:00,axn,28.27
2023-10-25T01:28:00,axn,28.62
2023-10-25T01:29:00,axn,28.65
2023-10-25T01:30:00,axn,28.20
2023-10-25T01:31:00,axn,28.52
2023-10-25T01:32:00,axn,28.54
2023-10-25T01:33:00,axn,28.50
2023-10-25T01:34:00,axn,28.49
2023-10-25T01:35:00,axn,28.02
2023-10-25T01:36:00,axn,28.03
2023-10-25T01:37:00,axn,28.05
2023-10-25T01:38:00,axn,28.51
2023-10-25T01:39:00,axn,28.23
2023-10-25T01:40:00,axn,28.63
2023-10-25T01:41:00,axn,28.16
2023-10-25T01:42:00,axn,28.16
2023-10-25T01:43:00,axn,28.18
2023-10-25T01:44:00,axn,28.32
2023-10-25T01:45:00,axn,28.38
2023-10-25T01:46:00,axn,28.67
2023-10-25T01:47:00,axn,28.57
2023-10-25T01:48:00,axn,28.42
2023-10-25T01:49:00,axn,28.59
2023-10-25T01:50:00,axn,28.43
2023-10-25T01:51:00,axn,28.49
2023-10-25T01:52:00,axn,28.37
2023-10-25T01:53:00,axn,28.51
2023-10-25T01:54:00,axn,28.36
2023-10-25T01:55:00,axn,28.28
2023-10-25T01:56:00,axn,28.28
2023-10-25T01:57:00,axn,28.71
2023-10-25T01:58:00,axn,38.87
2023-10-25T01:59:00,axn,38.79
2023-10-25T02:00:00,axn,38.98
2023-10-25T02:01:00,axn,39.17
2023-10-25T02:02:00,axn,28.70
2023-10-25T02:03:00,axn,28.83
2023-10-25T02:04:00,axn,28.74
2023-10-25T02:05:00,axn,28.42
2023-10-25T02:06:00,axn,27.87
2023-10-25T02:07:00,axn,27.85
2023-10-25T02:08:00,axn,28.15
2023-10-25T02:09:00,axn,27.59
2023-10-25T02:10:00,axn,27.81
2023-10-25T02:11:00,axn,27.93
2023-10-25T02:12:00,axn,32.50
2023-10-25T02:13:00,axn,32.91
2023-10-25T02:14:00,axn,32.90
2023-10-25T02:15:00,axn,32.40
2023-10-25T02:16:00,axn,27.67
2023-10-25T02:17:00,axn,27.69
2023-10-25T02:18:00,axn,27.69
2023-10-25T02:19:00,axn,27.67
2023-10-25T02:20:00,axn,28.06
2023-10-25T02:21:00,axn,27.60
2023-10-25T02:22:00,axn,27.68
2023-10-25T02:23:00,axn,27.52
2023-10-25T02:24:00,axn,27.45
2023-10-25T02:25:00,axn,27.48
2023-10-25T02:26:00,axn,27.13
2023-10-25T02:27:00,axn,27.22
2023-10-25T02:28:00,axn,27.08
2023-10-25T02:29:00,axn,27.03
2023-10-25T02:30:00,axn,27.33
2023-10-25T02:31:00,axn,27.28
2023-10-25T02:32:00,axn,27.44
2023-10-25T02:33:00,axn,27.40
2023-10-25T02:34:00,axn,27.54
2023-10-25T02:35:00,axn,27.53
2023-10-25T02:36:00,axn,27.26
2023-10-25T02:37:00,axn,27.59
2023-10-25T02:38:00,axn,27.59
2023-10-25T02:39:00,axn,27.44
2023-10-25T02:40:00,axn,27.29
2023-10-25T02:41:00,axn,27.31
2023-10-25T02:42:00,axn,27.38
2023-10-25T02:43:00,axn,27.44
2023-10-25T02:44:00,axn,27.29
2023-10-25T02:45:00,axn,27.25
2023-10-25T02:46:00,axn,27.55
2023-10-25T02:47:00,axn,27.24
2023-10-25T02:48:00,axn,27.09
2023-10-25T02:49:00,axn,27.20
2023-10-25T02:50:00,axn,27.20
2023-10-25T02:51:00,axn,27.14
2023-10-25T02:52:00,axn,27.78
2023-10-25T02:53:00,axn,26.97
2023-10-25T02:54:00,axn,27.12
2023-10-25T02:55:00,axn,27.03
2023-10-25T02:56:00,axn,27.05
2023-10-25T02:57:00,axn,27.02
2023-10-25T02:58:00,axn,26.96
2023-10-25T02:59:00,axn,26.90
2023-10-25T03:00:00,axn,27.04
2023-10-25T03:01:00,axn,27.00
2023-10-25T03:02:00,axn,27.15
2023-10-25T03:03:00,axn,26.98
2023-10-25T03:04:00,axn,26.97
2023-10-25T03:05:00,axn,27.10
2023-10-25T03:06:00,axn,26.84
2023-10-25T03:07:00,axn,26.92
2023-10-25T03:08:00,axn,27.02
2023-10-25T03:09:00,axn,26.96
2023-10-25T03:10:00,axn,26.89
2023-10-25T03:11:00,axn,27.08
2023-10-25T03:12:00,axn,27.08
2023-10-25T03:13:00,axn,27.03
2023-10-25T03:14:00,axn,26.96
2023-10-25T03:15:00,axn,27.19
2023-10-25T03:16:00,axn,27.41
2023-10-25T03:17:00,axn,27.44
2023-10-25T03:18:00,axn,30.22
2023-10-25T03:19:00,axn,29.98
2023-10-25T03:20:00,axn,30.18
2023-10-25T03:21:00,axn,27.16
2023-10-25T03:22:00,axn,26.92
2023-10-25T03:23:00,axn,27.22
2023-10-25T03:24:00,axn,26.90
2023-10-25T03:25:00,axn,27.05
2023-10-25T03:26:00,axn,26.97
2023-10-25T03:27:00,axn,27.14
2023-10-25T03:28:00,axn,27.28
2023-10-25T03:29:00,axn,26.99
2023-10-25T03:30:00,axn,27.04
2023-10-25T03:31:00,axn,26.92
2023-10-25T03:32:00,axn,26.73
2023-10-25T03:33:00,axn,26.98
2023-10-25T03:34:00,axn,26.70
2023-10-25T03:35:00,axn,26.99
2023-10-25T03:36:00,axn,26.59
2023-10-25T03:37:00,axn,27.53
2023-10-25T03:38:00,axn,27.16
2023-10-25T03:39:00,axn,27.35
2023-10-25T03:40:00,axn,26.96
2023-10-25T03:41:00,axn,27.46
2023-10-25T03:42:00,axn,27.11
2023-10-25T03:43:00,axn,26.94
2023-10-25T03:44:00,axn,26.96
2023-10-25T03:45:00,axn,27.07
2023-10-25T03:46:00,axn,26.85
2023-10-25T03:47:00,axn,27.44
2023-10-25T03:48:00,axn,26.88
2023-10-25T03:49:00,axn,26.86
2023-10-25T03:50:00,axn,27.01
2023-10-25T03:51:00,axn,29.64
2023-10-25T03:52:00,axn,29.53
2023-10-25T03:53:00,axn,26.63
2023-10-25T03:54:00,axn,26.63
2023-10-25T03:55:00,axn,26.98
2023-10-25T03:56:00,axn,26.87
2023-10-25T03:57:00,axn,26.59
2023-10-25T03:58:00,axn,26.58
2023-10-25T03:59:00,axn,26.60
2023-10-25T04:00:00,axn,26.21
2023-10-25T04:01:00,axn,26.33
2023-10-25T04:02:00,axn,26.60
2023-10-25T04:03:00,axn,26.55
2023-10-25T04:04:00,axn,26.43
2023-10-25T04:05:00,axn,26.91
2023-10-25T04:06:00,axn,26.43
2023-10-25T04:07:00,axn,26.45
2023-10-25T04:08:00,axn,26.48
2023-10-25T04:09:00,axn,26.41
2023-10-25T04:10:00,axn,26.28
2023-10-25T04:11:00,axn,26.29
2023-10-25T04:12:00,axn,26.28
2023-10-25T04:13:00,axn,26.28
2023-10-25T04:14:00,axn,26.43
2023-10-25T04:15:00,axn,26.46
2023-10-25T04:16:00,axn,26.42
2023-10-25T04:17:00,axn,26.41
2023-10-25T04:18:00,axn,27.13
2023-10-25T04:19:00,axn,27.07
2023-10-25T04:20:00,axn,27.20
2023-10-25T04:21:00,axn,27.06
2023-10-25T04:22:00,axn,27.02
2023-10-25T04:23:00,axn,27.11
2023-10-25T04:24:00,axn,27.12
2023-10-25T04:25:00,axn,44.67
2023-10-25T04:26:00,axn,42.05
2023-10-25T04:27:00,axn,41.82
2023-10-25T04:28:00,axn,42.14
2023-10-25T04:29:00,axn,42.20
2023-10-25T04:30:00,axn,42.66
2023-10-25T04:31:00,axn,43.24
2023-10-25T04:32:00,axn,29.17
2023-10-25T04:33:00,axn,28.85
2023-10-25T04:34:00,axn,28.71
2023-10-25T04:35:00,axn,27.96
2023-10-25T04:36:00,axn,28.05
2023-10-25T04:37:00,axn,28.08
2023-10-25T04:38:00,axn,28.18
2023-10-25T04:39:00,axn,28.44
2023-10-25T04:40:00,axn,28.18
2023-10-25T04:41:00,axn,29.99
2023-10-25T04:42:00,axn,29.61
2023-10-25T04:43:00,axn,29.59
2023-10-25T04:44:00,axn,29.79
2023-10-25T04:45:00,axn,29.74
2023-10-25T04:46:00,axn,30.10
2023-10-25T04:47:00,axn,29.94
2023-10-25T04:48:00,axn,29.62
2023-10-25T04:49:00,axn,29.65
2023-10-25T04:50:00,axn,29.67
2023-10-25T04:51:00,axn,29.61
2023-10-25T04:52:00,axn,29.64
2023-10-25T04:53:00,axn,34.59
2023-10-25T04:54:00,axn,32.27
2023-10-25T04:55:00,axn,32.49
2023-10-25T04:56:00,axn,36.73
2023-10-25T04:57:00,axn,36.22
2023-10-25T04:58:00,axn,35.82
2023-10-25T04:59:00,axn,49.06
2023-10-25T05:00:00,axn,48.80
2023-10-25T05:01:00,axn,43.92
2023-10-25T05:02:00,axn,37.98
2023-10-25T05:03:00,axn,38.03
2023-10-25T05:04:00,axn,37.44
2023-10-25T05:05:00,axn,37.24
2023-10-25T05:06:00,axn,37.21
2023-10-25T05:07:00,axn,37.46
2023-10-25T05:08:00,axn,37.81
2023-10-25T05:09:00,axn,37.48
2023-10-25T05:10:00,axn,37.21
2023-10-25T05:11:00,axn,37.29
2023-10-25T05:12:00,axn,37.28
2023-10-25T05:13:00,axn,37.21
2023-10-25T05:14:00,axn,37.52
2023-10-25T05:15:00,axn,37.30
2023-10-25T05:16:00,axn,37.53
2023-10-25T05:17:00,axn,37.12
2023-10-25T05:18:00,axn,36.73
2023-10-25T05:19:00,axn,37.27
2023-10-25T05:20:00,axn,36.98
2023-10-25T05:21:00,axn,36.86
2023-10-25T05:22:00,axn,36.96
2023-10-25T05:23:00,axn,36.93
2023-10-25T05:24:00,axn,36.79
2023-10-25T05:25:00,axn,36.89
2023-10-25T05:26:00,axn,36.85
2023-10-25T05:27:00,axn,36.66
2023-10-25T05:28:00,axn,36.50
2023-10-25T05:29:00,axn,35.21
2023-10-25T05:30:00,axn,24.04
2023-10-25T05:31:00,axn,24.25
2023-10-25T05:32:00,axn,24.23
2023-10-25T05:33:00,axn,24.38
2023-10-25T05:34:00,axn,24.27
2023-10-25T05:35:00,axn,24.27
2023-10-25T05:36:00,axn,24.18
2023-10-25T05:37:00,axn,24.20
2023-10-25T05:38:00,axn,24.29
2023-10-25T05:39:00,axn,24.20
2023-10-25T05:40:00,axn,24.30
2023-10-25T05:41:00,axn,24.47
2023-10-25T05:42:00,axn,24.63
2023-10-25T05:43:00,axn,24.34
2023-10-25T05:44:00,axn,24.72
2023-10-25T05:45:00,axn,24.13
2023-10-25T05:46:00,axn,24.27
2023-10-25T05:47:00,axn,24.18
2023-10-25T05:48:00,axn,24.17
2023-10-25T05:49:00,axn,24.49
2023-10-25T05:50:00,axn,24.19
2023-10-25T05:51:00,axn,24.02
2023-10-25T05:52:00,axn,24.20
2023-10-25T05:53:00,axn,23.97
2023-10-25T05:54:00,axn,24.04
2023-10-25T05:55:00,axn,24.03
2023-10-25T05:56:00,axn,24.14
2023-10-25T05:57:00,axn,24.70
2023-10-25T05:58:00,axn,24.26
2023-10-25T05:59:00,axn,24.47
2023-10-25T06:00:00,axn,24.14
2023-10-25T06:01:00,axn,24.61
2023-10-25T06:02:00,axn,24.43
2023-10-25T06:03:00,axn,24.34
2023-10-25T06:04:00,axn,24.36
2023-10-25T06:05:00,axn,24.44
2023-10-25T06:06:00,axn,24.20
2023-10-25T06:07:00,axn,48.42
2023-10-25T06:08:00,axn,24.05
2023-10-25T06:09:00,axn,24.53
2023-10-25T06:10:00,axn,24.26
2023-10-25T06:11:00,axn,24.29
2023-10-25T06:12:00,axn,24.30
2023-10-25T06:13:00,axn,24.16
2023-10-25T06:14:00,axn,23.95
2023-10-25T06:15:00,axn,23.69
2023-10-25T06:16:00,axn,23.75
2023-10-25T06:17:00,axn,23.91
2023-10-25T06:18:00,axn,23.78
2023-10-25T06:19:00,axn,24.26
2023-10-25T06:20:00,axn,24.65
2023-10-25T06:21:00,axn,24.42
2023-10-25T06:22:00,axn,24.39
2023-10-25T06:23:00,axn,24.67
2023-10-25T06:24:00,axn,24.65
2023-10-25T06:25:00,axn,24.33
2023-10-25T06:26:00,axn,24.16
2023-10-25T06:27:00,axn,24.42
2023-10-25T06:28:00,axn,27.19
2023-10-25T06:29:00,axn,27.40
2023-10-25T06:30:00,axn,27.80
2023-10-25T06:31:00,axn,25.03
2023-10-25T06:32:00,axn,25.00
2023-10-25T06:33:00,axn,25.01
2023-10-25T06:34:00,axn,24.93
2023-10-25T06:35:00,axn,24.89
2023-10-25T06:36:00,axn,42.10
2023-10-25T06:37:00,axn,24.72
2023-10-25T06:38:00,axn,24.51
2023-10-25T06:39:00,axn,24.63
2023-10-25T06:40:00,axn,24.67
2023-10-25T06:41:00,axn,24.60
2023-10-25T06:42:00,axn,25.07
2023-10-25T06:43:00,axn,24.85
2023-10-25T06:44:00,axn,24.87
2023-10-25T06:45:00,axn,25.37
2023-10-25T06:46:00,axn,25.28
2023-10-25T06:47:00,axn,25.08
2023-10-25T06:48:00,axn,25.71
2023-10-25T06:49:00,axn,26.14
2023-10-25T06:50:00,axn,26.50
2023-10-25T06:51:00,axn,26.44
2023-10-25T06:52:00,axn,28.43
2023-10-25T06:53:00,axn,28.37
2023-10-25T06:54:00,axn,28.34
2023-10-25T06:55:00,axn,28.18
2023-10-25T06:56:00,axn,28.20
2023-10-25T06:57:00,axn,28.31
2023-10-25T06:58:00,axn,28.12
2023-10-25T06:59:00,axn,28.02
2023-10-25T07:00:00,axn,28.49
2023-10-25T07:01:00,axn,31.92
2023-10-25T07:02:00,axn,47.23
2023-10-25T07:03:00,axn,37.20
2023-10-25T07:04:00,axn,37.19
2023-10-25T07:05:00,axn,36.30
2023-10-25T07:06:00,axn,35.37
2023-10-25T07:07:00,axn,35.11
2023-10-25T07:08:00,axn,35.23
2023-10-25T07:09:00,axn,34.62
2023-10-25T07:10:00,axn,40.60
2023-10-25T07:11:00,axn,40.23
2023-10-25T07:12:00,axn,40.50
2023-10-25T07:13:00,axn,34.04
2023-10-25T07:14:00,axn,34.08
2023-10-25T07:15:00,axn,33.98
2023-10-25T07:16:00,axn,33.84
2023-10-25T07:17:00,axn,33.96
2023-10-25T07:18:00,axn,33.97
2023-10-25T07:19:00,axn,40.16
2023-10-25T07:20:00,axn,34.08
2023-10-25T07:21:00,axn,36.61
2023-10-25T07:22:00,axn,33.84
2023-10-25T07:23:00,axn,33.65
2023-10-25T07:24:00,axn,33.47
2023-10-25T07:25:00,axn,33.34
2023-10-25T07:26:00,axn,33.29
2023-10-25T07:27:00,axn,33.32
2023-10-25T07:28:00,axn,33.70
2023-10-25T07:29:00,axn,34.64
2023-10-25T07:30:00,axn,44.89
2023-10-25T07:31:00,axn,44.69
2023-10-25T07:32:00,axn,45.08
2023-10-25T07:33:00,axn,45.60
2023-10-25T07:34:00,axn,35.83
2023-10-25T07:35:00,axn,36.05
2023-10-25T07:36:00,axn,35.78
2023-10-25T07:37:00,axn,35.60
2023-10-25T07:38:00,axn,35.20
2023-10-25T07:39:00,axn,35.02
2023-10-25T07:40:00,axn,35.19
2023-10-25T07:41:00,axn,35.19
2023-10-25T07:42:00,axn,35.35
2023-10-25T07:43:00,axn,35.49
2023-10-25T07:44:00,axn,35.62
2023-10-25T07:45:00,axn,35.19
2023-10-25T07:46:00,axn,35.61
2023-10-25T07:47:00,axn,35.22
2023-10-25T07:48:00,axn,34.88
2023-10-25T07:49:00,axn,34.56
2023-10-25T07:50:00,axn,34.76
2023-10-25T07:51:00,axn,35.99
2023-10-25T07:52:00,axn,36.60
2023-10-25T07:53:00,axn,36.75
2023-10-25T07:54:00,axn,36.99
2023-10-25T07:55:00,axn,36.56
2023-10-25T07:56:00,axn,36.05
2023-10-25T07:57:00,axn,36.98
2023-10-25T07:58:00,axn,36.85
2023-10-25T07:59:00,axn,36.46
2023-10-25T08:00:00,axn,36.81
2023-10-25T08:01:00,axn,40.53
2023-10-25T08:02:00,axn,41.55
2023-10-25T08:03:00,axn,41.36
2023-10-25T08:04:00,axn,41.24
2023-10-25T08:05:00,axn,41.76
2023-10-25T08:06:00,axn,41.41
2023-10-25T08:07:00,axn,41.25
2023-10-25T08:08:00,axn,40.85
2023-10-25T08:09:00,axn,41.31
2023-10-25T08:10:00,axn,41.04
2023-10-25T08:11:00,axn,41.73
2023-10-25T08:12:00,axn,40.84
2023-10-25T08:13:00,axn,41.41
2023-10-25T08:14:00,axn,41.43
2023-10-25T08:15:00,axn,42.01
2023-10-25T08:16:00,axn,41.87
2023-10-25T08:17:00,axn,42.18
2023-10-25T08:18:00,axn,42.21
2023-10-25T08:19:00,axn,41.84
2023-10-25T08:20:00,axn,41.86
2023-10-25T08:21:00,axn,41.83
2023-10-25T08:22:00,axn,56.30
2023-10-25T08:23:00,axn,55.99
2023-10-25T08:24:00,axn,55.90
2023-10-25T08:25:00,axn,55.85
2023-10-25T08:26:00,axn,55.79
2023-10-25T08:27:00,axn,55.44
2023-10-25T08:28:00,axn,41.97
2023-10-25T08:29:00,axn,41.78
2023-10-25T08:30:00,axn,41.89
2023-10-25T08:31:00,axn,41.86
2023-10-25T08:32:00,axn,41.73
2023-10-25T08:33:00,axn,41.72
2023-10-25T08:34:00,axn,41.73
2023-10-25T08:35:00,axn,41.54
2023-10-25T08:36:00,axn,41.56
2023-10-25T08:37:00,axn,42.16
2023-10-25T08:38:00,axn,41.48
2023-10-25T08:39:00,axn,41.66
2023-10-25T08:40:00,axn,41.65
2023-10-25T08:41:00,axn,41.91
2023-10-25T08:42:00,axn,42.77
2023-10-25T08:43:00,axn,42.93
2023-10-25T08:44:00,axn,42.31
2023-10-25T08:45:00,axn,42.30
2023-10-25T08:46:00,axn,42.92
2023-10-25T08:47:00,axn,42.41
2023-10-25T08:48:00,axn,42.74
2023-10-25T08:49:00,axn,42.90
2023-10-25T08:50:00,axn,42.79
2023-10-25T08:51:00,axn,42.65
2023-10-25T08:52:00,axn,42.73
2023-10-25T08:53:00,axn,43.00
2023-10-25T08:54:00,axn,43.19
2023-10-25T08:55:00,axn,42.76
2023-10-25T08:56:00,axn,43.78
2023-10-25T08:57:00,axn,42.77
2023-10-25T08:58:00,axn,42.63
2023-10-25T08:59:00,axn,42.66
2023-10-25T09:00:00,axn,43.33
2023-10-25T09:01:00,axn,43.10
2023-10-25T09:02:00,axn,43.07
2023-10-25T09:03:00,axn,43.88
2023-10-25T09:04:00,axn,44.24
2023-10-25T09:05:00,axn,44.38
2023-10-25T09:06:00,axn,44.02
2023-10-25T09:07:00,axn,43.70
2023-10-25T09:08:00,axn,44.12
2023-10-25T09:09:00,axn,43.32
2023-10-25T09:10:00,axn,43.15
2023-10-25T09:11:00,axn,43.30
2023-10-25T09:12:00,axn,42.99
2023-10-25T09:13:00,axn,43.03
2023-10-25T09:14:00,axn,42.64
2023-10-25T09:15:00,axn,42.80
2023-10-25T09:16:00,axn,43.22
2023-10-25T09:17:00,axn,43.58
2023-10-25T09:18:00,axn,43.65
2023-10-25T09:19:00,axn,43.20
2023-10-25T09:20:00,axn,43.23
2023-10-25T09:21:00,axn,42.75
2023-10-25T09:22:00,axn,42.74
2023-10-25T09:23:00,axn,42.70
2023-10-25T09:24:00,axn,45.31
2023-10-25T09:25:00,axn,45.72
2023-10-25T09:26:00,axn,45.80
2023-10-25T09:27:00,axn,43.34
2023-10-25T09:28:00,axn,43.02
2023-10-25T09:29:00,axn,43.24
2023-10-25T09:30:00,axn,43.63
2023-10-25T09:31:00,axn,43.39
2023-10-25T09:32:00,axn,43.54
2023-10-25T09:33:00,axn,43.94
2023-10-25T09:34:00,axn,43.52
2023-10-25T09:35:00,axn,43.50
2023-10-25T09:36:00,axn,43.19
2023-10-25T09:37:00,axn,42.94
2023-10-25T09:38:00,axn,43.61
2023-10-25T09:39:00,axn,44.18
2023-10-25T09:40:00,axn,43.67
2023-10-25T09:41:00,axn,44.70
2023-10-25T09:42:00,axn,45.22
2023-10-25T09:43:00,axn,45.44
2023-10-25T09:44:00,axn,48.13
2023-10-25T09:45:00,axn,48.21
2023-10-25T09:46:00,axn,46.19
2023-10-25T09:47:00,axn,46.00
2023-10-25T09:48:00,axn,45.40
2023-10-25T09:49:00,axn,45.55
2023-10-25T09:50:00,axn,45.69
2023-10-25T09:51:00,axn,44.36
2023-10-25T09:52:00,axn,47.29
2023-10-25T09:53:00,axn,47.24
2023-10-25T09:54:00,axn,52.05
2023-10-25T09:55:00,axn,50.14
2023-10-25T09:56:00,axn,50.41
2023-10-25T09:57:00,axn,45.36
2023-10-25T09:58:00,axn,44.81
2023-10-25T09:59:00,axn,44.62
2023-10-25T10:00:00,axn,44.72
2023-10-25T10:01:00,axn,44.70
2023-10-25T10:02:00,axn,44.46
2023-10-25T10:03:00,axn,44.32
2023-10-25T10:04:00,axn,44.46
2023-10-25T10:05:00,axn,44.44
2023-10-25T10:06:00,axn,44.29
2023-10-25T10:07:00,axn,45.22
2023-10-25T10:08:00,axn,45.48
2023-10-25T10:09:00,axn,45.49
2023-10-25T10:10:00,axn,45.38
2023-10-25T10:11:00,axn,45.47
2023-10-25T10:12:00,axn,44.96
2023-10-25T10:13:00,axn,44.95
2023-10-25T10:14:00,axn,44.99
2023-10-25T10:15:00,axn,44.94
2023-10-25T10:16:00,axn,45.01
2023-10-25T10:17:00,axn,45.06
2023-10-25T10:18:00,axn,44.96
2023-10-25T10:19:00,axn,44.91
2023-10-25T10:20:00,axn,44.56
2023-10-25T10:21:00,axn,44.48
2023-10-25T10:22:00,axn,45.32
2023-10-25T10:23:00,axn,44.27
2023-10-25T10:24:00,axn,44.36
2023-10-25T10:25:00,axn,44.25
2023-10-25T10:26:00,axn,44.19
2023-10-25T10:27:00,axn,44.55
2023-10-25T10:28:00,axn,44.50
2023-10-25T10:29:00,axn,44.65
2023-10-25T10:30:00,axn,54.13
2023-10-25T10:31:00,axn,53.12
2023-10-25T10:32:00,axn,52.26
2023-10-25T10:33:00,axn,52.12
2023-10-25T10:34:00,axn,52.81
2023-10-25T10:35:00,axn,52.46
2023-10-25T10:36:00,axn,52.03
2023-10-25T10:37:00,axn,52.60
2023-10-25T10:38:00,axn,52.36
2023-10-25T10:39:00,axn,52.27
2023-10-25T10:40:00,axn,52.29
2023-10-25T10:41:00,axn,52.67
2023-10-25T10:42:00,axn,52.99
2023-10-25T10:43:00,axn,54.77
2023-10-25T10:44:00,axn,54.89
2023-10-25T10:45:00,axn,55.48
2023-10-25T10:46:00,axn,52.43
2023-10-25T10:47:00,axn,52.60
2023-10-25T10:48:00,axn,52.19
2023-10-25T10:49:00,axn,52.51
2023-10-25T10:50:00,axn,51.97
2023-10-25T10:51:00,axn,52.44
2023-10-25T10:52:00,axn,52.09
2023-10-25T10:53:00,axn,51.87
2023-10-25T10:54:00,axn,52.83
2023-10-25T10:55:00,axn,53.61
2023-10-25T10:56:00,axn,53.16
2023-10-25T10:57:00,axn,53.27
2023-10-25T10:58:00,axn,53.38
2023-10-25T10:59:00,axn,52.66
2023-10-25T11:00:00,axn,53.10
2023-10-25T11:01:00,axn,52.66
2023-10-25T11:02:00,axn,52.51
2023-10-25T11:03:00,axn,52.50
2023-10-25T11:04:00,axn,52.71
2023-10-25T11:05:00,axn,51.75
2023-10-25T11:06:00,axn,53.44
2023-10-25T11:07:00,axn,52.47
2023-10-25T11:08:00,axn,53.11
2023-10-25T11:09:00,axn,51.88
2023-10-25T11:10:00,axn,52.79
2023-10-25T11:11:00,axn,51.68
2023-10-25T11:12:00,axn,52.39
2023-10-25T11:13:00,axn,53.07
2023-10-25T11:14:00,axn,52.17
2023-10-25T11:15:00,axn,52.23
2023-10-25T11:16:00,axn,52.07
2023-10-25T11:17:00,axn,52.86
2023-10-25T11:18:00,axn,52.19
2023-10-25T11:19:00,axn,52.09
2023-10-25T11:20:00,axn,54.09
2023-10-25T11:21:00,axn,52.15
2023-10-25T11:22:00,axn,52.36
2023-10-25T11:23:00,axn,52.59
2023-10-25T11:24:00,axn,52.36
2023-10-25T11:25:00,axn,53.74
2023-10-25T11:26:00,axn,52.90
2023-10-25T11:27:00,axn,53.26
2023-10-25T11:28:00,axn,62.05
2023-10-25T11:29:00,axn,61.91
2023-10-25T11:30:00,axn,61.76
2023-10-25T11:31:00,axn,61.99
2023-10-25T11:32:00,axn,51.50
2023-10-25T11:33:00,axn,51.72
2023-10-25T11:34:00,axn,54.88
2023-10-25T11:35:00,axn,54.79
2023-10-25T11:36:00,axn,54.84
2023-10-25T11:37:00,axn,54.50
2023-10-25T11:38:00,axn,54.59
2023-10-25T11:39:00,axn,51.92
2023-10-25T11:40:00,axn,51.91
2023-10-25T11:41:00,axn,51.58
2023-10-25T11:42:00,axn,51.73
2023-10-25T11:43:00,axn,51.75
2023-10-25T11:44:00,axn,51.85
2023-10-25T11:45:00,axn,51.43
2023-10-25T11:46:00,axn,51.70
2023-10-25T11:47:00,axn,51.64
2023-10-25T11:48:00,axn,51.50
2023-10-25T11:49:00,axn,52.35
2023-10-25T11:50:00,axn,51.32
2023-10-25T11:51:00,axn,51.74
2023-10-25T11:52:00,axn,51.68
2023-10-25T11:53:00,axn,50.92
2023-10-25T11:54:00,axn,51.98
2023-10-25T11:55:00,axn,51.50
2023-10-25T11:56:00,axn,51.00
2023-10-25T11:57:00,axn,51.14
2023-10-25T11:58:00,axn,51.94
2023-10-25T11:59:00,axn,50.98
2023-10-25T12:00:00,axn,51.59
2023-10-25T12:01:00,axn,55.69
2023-10-25T12:02:00,axn,65.21
2023-10-25T12:03:00,axn,65.19
2023-10-25T12:04:00,axn,65.65
2023-10-25T12:05:00,axn,51.41
2023-10-25T12:06:00,axn,66.16
2023-10-25T12:07:00,axn,65.61
2023-10-25T12:08:00,axn,65.71
2023-10-25T12:09:00,axn,51.80
2023-10-25T12:10:00,axn,51.47
2023-10-25T12:11:00,axn,51.34
2023-10-25T12:12:00,axn,51.03
2023-10-25T12:13:00,axn,50.91
2023-10-25T12:14:00,axn,51.07
2023-10-25T12:15:00,axn,51.44
2023-10-25T12:16:00,axn,51.29
2023-10-25T12:17:00,axn,51.14
2023-10-25T12:18:00,axn,51.57
2023-10-25T12:19:00,axn,51.15
2023-10-25T12:20:00,axn,51.20
2023-10-25T12:21:00,axn,51.46
2023-10-25T12:22:00,axn,51.37
2023-10-25T12:23:00,axn,51.61
2023-10-25T12:24:00,axn,51.34
2023-10-25T12:25:00,axn,51.60
2023-10-25T12:26:00,axn,51.74
2023-10-25T12:27:00,axn,51.44
2023-10-25T12:28:00,axn,51.19
2023-10-25T12:29:00,axn,51.36
2023-10-25T12:30:00,axn,51.35
2023-10-25T12:31:00,axn,51.41
2023-10-25T12:32:00,axn,51.04
2023-10-25T12:33:00,axn,51.52
2023-10-25T12:34:00,axn,51.08
2023-10-25T12:35:00,axn,50.95
2023-10-25T12:36:00,axn,50.77
2023-10-25T12:37:00,axn,51.41
2023-10-25T12:38:00,axn,50.38
2023-10-25T12:39:00,axn,50.84
2023-10-25T12:40:00,axn,51.34
2023-10-25T12:41:00,axn,51.07
2023-10-25T12:42:00,axn,51.13
2023-10-25T12:43:00,axn,50.63
2023-10-25T12:44:00,axn,53.37
2023-10-25T12:45:00,axn,53.55
2023-10-25T12:46:00,axn,53.48
2023-10-25T12:47:00,axn,53.86
2023-10-25T12:48:00,axn,51.21
2023-10-25T12:49:00,axn,51.68
2023-10-25T12:50:00,axn,52.90
2023-10-25T12:51:00,axn,52.86
2023-10-25T12:52:00,axn,52.64
2023-10-25T12:53:00,axn,51.36
2023-10-25T12:54:00,axn,50.97
2023-10-25T12:55:00,axn,51.44
2023-10-25T12:56:00,axn,51.51
2023-10-25T12:57:00,axn,51.56
2023-10-25T12:58:00,axn,55.88
2023-10-25T12:59:00,axn,55.21
2023-10-25T13:00:00,axn,53.65
2023-10-25T13:01:00,axn,52.12
2023-10-25T13:02:00,axn,53.02
2023-10-25T13:03:00,axn,52.89
2023-10-25T13:04:00,axn,52.67
2023-10-25T13:05:00,axn,52.84
2023-10-25T13:06:00,axn,52.46
2023-10-25T13:07:00,axn,52.66
2023-10-25T13:08:00,axn,52.08
2023-10-25T13:09:00,axn,52.37
2023-10-25T13:10:00,axn,52.86
2023-10-25T13:11:00,axn,52.44
2023-10-25T13:12:00,axn,53.10
2023-10-25T13:13:00,axn,53.04
2023-10-25T13:14:00,axn,52.80
2023-10-25T13:15:00,axn,52.65
2023-10-25T13:16:00,axn,51.95
2023-10-25T13:17:00,axn,52.23
2023-10-25T13:18:00,axn,51.51